Weather History for Lemoore NAS, CA

Change the Weather History Date:

Sunday, March 23, 2014

  Actual Average Record
Temperature  
Mean Temperature 65 °F -  
Max Temperature 82 °F 70 °F 84 °F (1998)
Min Temperature 48 °F 45 °F 32 °F (2009)
Growing Degree Days 15 (Base 50)    
Moisture  
Dew Point 35 °F    
Average Humidity 37    
Maximum Humidity 64    
Minimum Humidity 14    
Precipitation  
Precipitation 0.00 in - - ()
Sea Level Pressure  
Sea Level Pressure 30.08 in    
Wind  
Wind Speed 9 mph (NNW)    
Max Wind Speed 15 mph    
Max Gust Speed 18 mph    
Visibility 10 miles    
Events      
Averages and records for this station are not official NWS values.
T = Trace of Precipitation, MM = Missing Value Source: NWS Daily Summary

Daily Weather History Graph

Daily Weather History Graph

Search for Another Location

Airport:

Trip Planner

Search our weather history database for the weather conditions in past years. The results will help you decide how hot, cold, wet, or windy it might be!

Date:

Astronomy

Mar. 23, 2014 Rise Set
Actual Time 6:58 AM PDT 7:14 PM PDT
Civil Twilight 6:33 AM PDT 7:40 PM PDT
Nautical Twilight 6:03 AM PDT 8:10 PM PDT
Astronomical Twilight 5:32 AM PDT 8:40 PM PDT
Moon 1:27 AM PDT (3/23) 11:53 AM PDT (3/23)
Length of Visible Light 13h 06m
Length of Day
12h 15m
Waning Gibbous, 53% of the Moon is Illuminated
Mar 23
Waning Gibbous
Mar 23
Last Quarter
Mar 30
New
Apr 7
First Quarter
Apr 15
Full

Hourly Weather History & Observations

Time (PDT) Temp. Dew Point Humidity Pressure Visibility Wind Dir Wind Speed Gust Speed Precip Events Conditions
12:56 AM 54.0 °F 32.0 °F 43% 30.07 in 10.0 mi West 6.9 mph - N/A   Clear
1:56 AM 52.0 °F 33.1 °F 49% 30.08 in 10.0 mi NNE 4.6 mph - N/A   Clear
2:56 AM 52.0 °F 36.0 °F 54% 30.08 in 10.0 mi NNW 4.6 mph - N/A   Clear
3:56 AM 50.0 °F 34.0 °F 54% 30.08 in 10.0 mi WNW 9.2 mph - N/A   Clear
4:56 AM 53.1 °F 37.0 °F 55% 30.08 in 10.0 mi NW 10.4 mph - N/A   Clear
5:56 AM 52.0 °F 39.0 °F 61% 30.09 in 10.0 mi NW 11.5 mph - N/A   Clear
6:56 AM 48.9 °F 37.0 °F 64% 30.10 in 10.0 mi WNW 4.6 mph - N/A   Clear
7:56 AM 53.1 °F 37.9 °F 57% 30.13 in 10.0 mi WNW 6.9 mph - N/A   Clear
8:56 AM 61.0 °F 43.0 °F 52% 30.13 in 10.0 mi NW 10.4 mph - N/A   Clear
9:37 AM 64.9 °F 42.1 °F 43% 30.13 in 10.0 mi NNW 11.5 mph - N/A   Partly Cloudy
9:56 AM 66.9 °F 41.0 °F 39% 30.13 in 10.0 mi NW 12.7 mph - N/A   Partly Cloudy
10:56 AM 73.0 °F 39.9 °F 30% 30.13 in 10.0 mi NW 11.5 mph - N/A   Partly Cloudy
11:56 AM 77.0 °F 39.9 °F 26% 30.12 in 10.0 mi NNW 10.4 mph - N/A   Clear
12:56 PM 78.1 °F 35.1 °F 21% 30.11 in 10.0 mi NNW 10.4 mph - N/A   Clear
1:56 PM 81.0 °F 34.0 °F 18% 30.08 in 10.0 mi NNW 12.7 mph 16.1 mph N/A   Partly Cloudy
2:56 PM 81.0 °F 30.9 °F 16% 30.06 in 10.0 mi North 9.2 mph - N/A   Partly Cloudy
3:56 PM 82.0 °F 30.9 °F 16% 30.04 in 10.0 mi North 10.4 mph - N/A   Partly Cloudy
4:56 PM 82.9 °F 28.9 °F 14% 30.03 in 10.0 mi North 13.8 mph 18.4 mph N/A   Partly Cloudy
5:56 PM 81.0 °F 30.9 °F 16% 30.03 in 10.0 mi NNW 15.0 mph - N/A   Partly Cloudy
6:56 PM 75.9 °F 32.0 °F 20% 30.03 in 7.0 mi North 9.2 mph - N/A   Partly Cloudy
7:56 PM 70.0 °F 32.0 °F 25% 30.04 in 7.0 mi NNW 10.4 mph - N/A   Clear
8:56 PM 63.0 °F 32.0 °F 31% 30.06 in - NNW 11.5 mph - N/A   Clear
9:56 PM 61.0 °F 33.1 °F 35% 30.07 in - NNW 9.2 mph - N/A   Clear
10:56 PM 59.0 °F 33.1 °F 38% 30.09 in - NW 9.2 mph - N/A   Clear
11:56 PM 55.9 °F 33.1 °F 42% 30.09 in - NW 10.4 mph - N/A   Clear